This is the latest recevied weather packets stored in our database for station/object KB4JAC-13. If no packets are shown the sender has not sent any weather packets the latest 10 day(s).
| Time | Temp. | Humidity | Pressure | Rain* | Wind** | Luminosity | Snow |
|---|---|---|---|---|---|---|---|
| 1788302307 | 33.89° C | 59% | 992.3 hPa | 0 mm | - | - | - |
| 1788301706 | 34.44° C | 54% | 992.3 hPa | 0 mm | - | - | - |
| 1788301105 | 36.11° C | 47% | 992.3 hPa | 0 mm | - | - | - |
| 1788300504 | 36.67° C | 48% | 992.3 hPa | 0 mm | - | - | - |
| 1788299904 | 37.22° C | 45% | 992.2 hPa | 0 mm | - | - | - |
| 1788299303 | 37.22° C | 48% | 991.9 hPa | 0 mm | - | - | - |
| 1788298702 | 37.22° C | 45% | 992.2 hPa | 0 mm | - | - | - |
| 1788298101 | 37.22° C | 48% | 992.4 hPa | 0 mm | - | - | - |
| 1788297501 | 36.67° C | 49% | 992.2 hPa | 0 mm | - | - | - |
| 1788296900 | 37.78° C | 47% | 992.2 hPa | 0 mm | - | - | - |
| 1788296299 | 37.78° C | 47% | 992.3 hPa | 0 mm | - | - | - |
| 1788295698 | 37.78° C | 47% | 992.5 hPa | 0 mm | - | - | - |
| 1788295097 | 37.78° C | 47% | 992.5 hPa | 0 mm | - | - | - |
| 1788294496 | 36.67° C | 47% | 992.7 hPa | 0 mm | - | - | - |
| 1788293895 | 35.56° C | 49% | 992.8 hPa | 0 mm | - | - | - |
| 1788293294 | 37.22° C | 50% | 992.8 hPa | 0 mm | - | - | - |
| 1788292693 | 37.78° C | 48% | 992.9 hPa | 0 mm | - | - | - |
| 1788292092 | 36.67° C | 48% | 993 hPa | 0 mm | - | - | - |
| 1788291491 | 35.56° C | 49% | 993.2 hPa | 0 mm | - | - | - |
| 1788290891 | 36.11° C | 50% | 993.2 hPa | 0 mm | - | - | - |
| 1788290290 | 36.11° C | 51% | 993.3 hPa | 0 mm | - | - | - |
| 1788289689 | 36.11° C | 51% | 993.5 hPa | 0 mm | - | - | - |
| 1788289088 | 36.11° C | 48% | 993.5 hPa | 0 mm | - | - | - |
| 1788288503 | 35.56° C | 49% | 993.8 hPa | 0 mm | - | - | - |
| 1788287887 | 36.11° C | 47% | 993.6 hPa | 0 mm | - | - | - |
* Rain since midnight (hover to see other rain measurements)
** Current wind speed in m/s (hover to see current wind gust speed)